317 
ASUS46 KSEW 020010
RWRWA 

WASHINGTON REGIONAL WEATHER ROUNDUP
NATIONAL WEATHER SERVICE SEATTLE WA
500 PM PDT WED OCT 01 2014

NOTE:"FAIR" INDICATES FEW OR NO CLOUDS BELOW 12,000 FEET WITH NO 
SIGNIFICANT WEATHER AND/OR OBSTRUCTIONS TO VISIBILITY.

WAZ505-507>509-020100-
SEATTLE, TACOMA, EVERETT, AND VICINITY
  
CITY           SKY/WX    TMP DP  RH WIND       PRES   REMARKS
EVERETT        CLOUDY    59  46  62 N6        30.19S                  
6HR MIN TEMP:  55; 6HR MAX TEMP:  61;                                

BOEING FIELD   MOSUNNY   66  45  46 VRB5      30.16F                  
6HR MIN TEMP:  59; 6HR MAX TEMP:  67;                                

RENTON         SUNNY     65  46  50 S8        30.16S                  
6HR MIN TEMP:  57; 6HR MAX TEMP:  66;                                

SEATAC AIRPORT MOSUNNY   64  48  56 SW8       30.18S                  
6HR MIN TEMP:  56; 6HR MAX TEMP:  65;                                

JBLM-MCCHORD   MOSUNNY   63  48  56 SW2       30.17F                  
6HR MIN TEMP:  58; 6HR MAX TEMP:  66;                                

PUYALLUP       NOT AVBL                                               
JBLM-FT LEWIS  PTSUNNY   65  47  51 S5        30.16F                  
6HR MIN TEMP:  57; 6HR MAX TEMP:  66;                                

TACOMA NARROWS MOSUNNY   63  47  55 VRB3      30.17F                  
6HR MIN TEMP:  55; 6HR MAX TEMP:  63;                                

$$
 
WAZ001-503-506-510-514-515-020100-
NORTH INTERIOR
  
CITY           SKY/WX    TMP DP  RH WIND       PRES   REMARKS
BELLINGHAM     PTSUNNY   61  47  59 S8        30.16S                  
6HR MIN TEMP:  57; 6HR MAX TEMP:  62;                                

FRIDAY HARBOR  MOSUNNY   62  46  55 SW9       30.16F                  
6HR MIN TEMP:  58; 6HR MAX TEMP:  66;                                

EASTSOUND      PTSUNNY   57  50  77 CALM      30.14F                  
PORT ANGELES   MOSUNNY   58  47  66 NW14G22   30.19S                  
6HR MIN TEMP:  58; 6HR MAX TEMP:  62;                                

NAS WHIDBEY    PTSUNNY   61  45  55 SW13      30.18S                  
6HR MIN TEMP:  61; 6HR MAX TEMP:  65;                                

BURLINGTON     CLOUDY    63  46  55 SW9       30.19S                  
$$
 
WAZ020-022-039-040-504-511-512-020100-
SOUTHWEST INTERIOR
  
CITY           SKY/WX    TMP DP  RH WIND       PRES   REMARKS
SHELTON        SUNNY     65  45  48 SW13      30.14F                  
6HR MIN TEMP:  56; 6HR MAX TEMP:  67;                                

OLYMPIA        PTSUNNY   64  46  52 W7        30.17S                  
6HR MIN TEMP:  56; 6HR MAX TEMP:  66;                                

CHEHALIS       FAIR      66  48  52 VRB6      30.18S                  
KELSO          CLOUDY    64  48  55 CALM      30.22F                  
6HR MIN TEMP:  57; 6HR MAX TEMP:  64;                                

VANCOUVER      MOSUNNY   66  45  46 NW8       30.19S                  
6HR MIN TEMP:  57; 6HR MAX TEMP:  68;                                

SCAPPOOSE, OR  MOSUNNY   64  47  53 CALM      30.18F                  
6HR MIN TEMP:  55; 6HR MAX TEMP:  67;                                

PORTLAND, OR   PTSUNNY   66  47  50 E5        30.19S                  
6HR MIN TEMP:  59; 6HR MAX TEMP:  67;                                

$$
 
WAZ021-516-517-020100-
WASHINGTON COAST
  
CITY           SKY/WX    TMP DP  RH WIND       PRES   REMARKS
FORKS          CLOUDY    61  47  59 SW8       30.20S HAZE             
6HR MIN TEMP:  59; 6HR MAX TEMP:  65;                                

HOQUIAM        MOSUNNY   62  47  57 W14       30.20S                  
6HR MIN TEMP:  59; 6HR MAX TEMP:  65;                                

ASTORIA, OR    MOSUNNY   63  49  60 NW9       30.20F                  
6HR MIN TEMP:  60; 6HR MAX TEMP:  65;                                

$$
 
WAZ019-023-024-040-518-519-020100-
CASCADE MOUNTAINS AND COLUMBIA GORGE
  
CITY           SKY/WX    TMP DP  RH WIND       PRES   REMARKS
STAMPEDE PASS  NOT AVBL                                               
TROUTDALE, OR  PTSUNNY   65  45  48 CALM      30.18F                  
6HR MIN TEMP:  59; 6HR MAX TEMP:  65;                                

THE DALLES, OR SUNNY     68  40  35 NW21G26   30.10S                  
6HR MIN TEMP:  66; 6HR MAX TEMP:  70;                                

$$

WAZ026-027-041>044-520-521-020100-
EAST SLOPES
  
CITY           SKY/WX    TMP DP  RH WIND       PRES   REMARKS
OMAK           MOSUNNY   67  36  31 S10       29.96F                  
6HR MIN TEMP:  55; 6HR MAX TEMP:  71;                                

WENATCHEE      MOSUNNY   68  32  26 NW20      30.01F                  
6HR MIN TEMP:  62; 6HR MAX TEMP:  71;                                

ELLENSBURG     MOSUNNY   66  39  37 NW23G31   30.07S                  
6HR MIN TEMP:  62; 6HR MAX TEMP:  67;                                

YAKIMA         SUNNY     69  39  33 S6        30.05F                  
6HR MIN TEMP:  64; 6HR MAX TEMP:  71;                                

$$

WAZ028-034-035-020100-
COLUMBIA BASIN
  
CITY           SKY/WX    TMP DP  RH WIND       PRES   REMARKS
EPHRATA        SUNNY     70  34  26 S12       30.01F                  
6HR MIN TEMP:  63; 6HR MAX TEMP:  70;                                

MOSES LAKE     SUNNY     70  36  28 SW15      30.03F                  
6HR MIN TEMP:  61; 6HR MAX TEMP:  71;                                

PASCO          SUNNY     70  41  34 W8        30.06F                  
6HR MIN TEMP:  65; 6HR MAX TEMP:  72;                                

HERMISTON, OR  SUNNY     70  38  31 W13       30.07S                  
6HR MIN TEMP:  63; 6HR MAX TEMP:  72;                                

$$

WAZ036>038-020100-
NORTHEAST WASHINGTON
  
CITY           SKY/WX    TMP DP  RH WIND       PRES   REMARKS
SPOKANE GEIGER PTSUNNY   61  32  33 SW16      30.05F                  
6HR MIN TEMP:  52; 6HR MAX TEMP:  62;                                

SPOKANE FELTS  PTSUNNY   63  32  31 SW15      30.05S                  
6HR MIN TEMP:  55; 6HR MAX TEMP:  65;                                

FAIRCHILD AFB  PTSUNNY   61  32  33 SW17      30.05F                  
6HR MIN TEMP:  53; 6HR MAX TEMP:  62;                                

COEURDALENE,ID CLOUDY    59  36  41 SW18      30.04F                  
6HR MIN TEMP:  52; 6HR MAX TEMP:  63;                                

DEER PARK      MOSUNNY   61  35  37 SW14G23   30.04S                  
6HR MIN TEMP:  51; 6HR MAX TEMP:  64;                                

$$

WAZ029>033-020100-
SOUTHEAST WASHINGTON
  
CITY           SKY/WX    TMP DP  RH WIND       PRES   REMARKS
PULLMAN        MOSUNNY   59  35  40 W10       30.11S                  
6HR MIN TEMP:  53; 6HR MAX TEMP:  61;                                

LEWISTON, ID   SUNNY     67  37  33 VRB6      30.07F                  
6HR MIN TEMP:  58; 6HR MAX TEMP:  68;                                

WALLA WALLA    SUNNY     68  38  33 W12       30.08F                  
6HR MIN TEMP:  60; 6HR MAX TEMP:  68;                                

PENDLETON, OR  SUNNY     67  35  30 NW14      30.07F                  
6HR MIN TEMP:  60; 6HR MAX TEMP:  69;                                

$$